TimeMDT,TemperatureF,Dew PointF,Humidity,Sea Level PressureIn,VisibilityMPH,Wind Direction,Wind SpeedMPH,Gust SpeedMPH,PrecipitationIn,Events,Conditions,WindDirDegrees,DateUTC
12:56 AM,46.9,35.1,63,29.71,10.0,West,10.4,-,N/A,,Clear,260,2013-10-01 06:56:00
1:56 AM,48.0,33.1,56,29.72,10.0,West,15.0,-,N/A,,Clear,260,2013-10-01 07:56:00
2:56 AM,46.0,32.0,58,29.74,10.0,WSW,11.5,-,N/A,,Clear,250,2013-10-01 08:56:00
3:56 AM,44.1,32.0,63,29.77,10.0,WSW,13.8,19.6,N/A,,Clear,250,2013-10-01 09:56:00
4:56 AM,43.0,30.9,62,29.81,10.0,WSW,12.7,-,N/A,,Clear,250,2013-10-01 10:56:00
5:56 AM,43.0,30.0,60,29.84,10.0,West,11.5,-,N/A,,Clear,260,2013-10-01 11:56:00
6:56 AM,41.0,30.0,65,29.87,10.0,WSW,9.2,-,N/A,,Clear,240,2013-10-01 12:56:00
7:56 AM,48.0,30.9,52,29.86,10.0,West,11.5,-,N/A,,Clear,260,2013-10-01 13:56:00
8:56 AM,52.0,33.1,49,29.88,10.0,WSW,16.1,-,N/A,,Clear,250,2013-10-01 14:56:00
9:56 AM,57.0,32.0,39,29.89,10.0,West,20.7,27.6,N/A,,Clear,270,2013-10-01 15:56:00
10:56 AM,60.1,30.9,33,29.90,10.0,West,20.7,31.1,N/A,,Clear,280,2013-10-01 16:56:00
11:56 AM,62.1,30.9,31,29.89,10.0,West,18.4,29.9,N/A,,Clear,280,2013-10-01 17:56:00
12:56 PM,63.0,28.9,28,29.89,10.0,West,16.1,28.8,N/A,,Clear,260,2013-10-01 18:56:00
1:56 PM,64.9,28.9,26,29.88,10.0,West,19.6,26.5,N/A,,Clear,270,2013-10-01 19:56:00
2:56 PM,66.0,28.9,25,29.88,10.0,WSW,19.6,25.3,N/A,,Clear,250,2013-10-01 20:56:00
3:56 PM,66.0,28.0,24,29.88,10.0,West,15.0,-,N/A,,Clear,270,2013-10-01 21:56:00
4:56 PM,64.0,28.0,26,29.88,10.0,WSW,15.0,24.2,N/A,,Clear,250,2013-10-01 22:56:00
5:56 PM,59.0,33.1,38,29.90,10.0,West,8.1,-,N/A,,Clear,260,2013-10-01 23:56:00
6:56 PM,51.1,32.0,48,29.92,10.0,WSW,5.8,-,N/A,,Clear,250,2013-10-02 00:56:00
7:56 PM,48.0,32.0,54,29.92,10.0,SSW,4.6,-,N/A,,Clear,200,2013-10-02 01:56:00
8:56 PM,43.0,32.0,65,29.92,10.0,South,6.9,-,N/A,,Clear,190,2013-10-02 02:56:00
9:56 PM,41.0,32.0,70,29.93,10.0,South,8.1,-,N/A,,Clear,170,2013-10-02 03:56:00
10:56 PM,48.0,33.1,56,29.91,10.0,Calm,Calm,-,N/A,,Mostly Cloudy,0,2013-10-02 04:56:00
11:56 PM,46.9,35.1,63,29.91,10.0,Calm,Calm,-,N/A,,Scattered Clouds,0,2013-10-02 05:56:00